RH
31 32 33 34 35 35 36 38 40 42 41 37 35 36 36 34 33 31 30 31 31 29 29 31 30 26 25 28 30 32 31 32 33 31 30 29 28 28 28 27 23 22 23 27 33 36 35 32 30 32 34 35 37 37 37 37 35 29 25 24 21 15 10 8 7 6 4 3 3 3 3 3 2 2 2 2 2 2 2 3 2 3 3 3 3 3
33 34 35 36 35 35 35 38 39 38 36 35 36 35 34 33 34 32 30 31 29 28 27 28 29 27 26 31 33 33 33 32 32 30 29 29 28 28 27 25 22 21 25 30 35 37 34 32 33 35 35 36 37 38 38 38 36 33 27 25 23 17 11 8 7 7 5 4 3 3 3 3 2 2 2 2 2 2 2 2 2 2 2 3 3 3
34 35 37 36 34 34 35 35 35 36 36 35 34 32 32 32 33 33 32 29 27 27 25 25 31 31 28 33 36 36 35 32 30 29 29 29 28 27 26 24 21 23 29 33 34 35 34 33 37 39 37 36 37 38 39 39 38 37 32 27 25 20 12 8 8 7 6 4 3 4 3 3 3 2 2 2 2 2 2 2 3 3 2 2 3 3
34 36 37 35 34 35 36 36 35 34 33 32 31 31 32 32 33 33 31 28 26 25 24 25 33 36 32 36 39 38 35 32 30 29 29 29 28 27 26 23 24 28 32 33 32 33 34 37 41 42 38 35 36 38 40 40 40 39 35 30 27 22 14 9 8 7 7 5 4 3 3 3 3 3 3 3 3 3 2 2 2 3 3 3 2 2
37 37 36 34 34 35 36 36 34 33 32 31 31 32 33 34 32 31 29 28 26 25 25 24 32 39 36 37 40 38 35 32 29 28 29 29 28 27 25 24 27 30 31 30 29 32 36 41 44 42 38 35 35 38 40 41 42 41 37 32 28 25 17 10 8 8 7 6 4 4 4 3 3 3 3 3 3 3 3 3 3 2 3 3 3 3
36 35 33 32 34 35 36 37 35 35 34 33 33 33 33 33 31 30 29 29 28 27 27 24 30 38 36 35 38 36 33 30 28 28 28 29 28 27 26 26 28 29 28 27 28 33 40 45 45 43 40 36 34 36 39 41 42 42 39 34 30 27 20 11 8 8 7 6 5 4 4 3 3 3 3 3 3 3 3 3 3 3 2 3 3 3
34 33 32 33 35 37 38 37 35 34 33 32 32 32 32 31 30 31 30 31 31 29 30 28 30 36 35 33 34 32 29 28 27 27 27 29 29 27 26 27 28 28 27 28 32 39 45 47 47 45 41 36 33 34 38 41 43 43 40 36 32 29 22 13 8 8 7 6 5 4 4 3 3 3 3 4 4 4 4 3 3 3 3 2 2 3
35 34 33 35 39 40 38 35 33 31 31 32 33 32 32 32 32 35 35 34 34 34 36 34 32 37 35 29 29 29 28 27 27 27 28 29 29 28 27 26 27 28 27 32 40 44 46 49 49 46 41 35 32 34 38 42 43 42 41 37 33 30 25 16 9 7 7 7 6 4 4 3 3 3 4 4 4 4 4 4 3 3 3 3 2 2
34 34 36 40 40 38 35 32 30 29 30 32 33 32 32 34 37 40 39 39 39 40 41 38 33 34 33 28 26 27 28 27 27 27 29 29 28 28 27 26 27 28 30 36 42 42 45 51 50 45 40 34 32 35 39 42 42 41 41 39 36 32 27 18 10 7 7 7 6 5 4 4 3 3 4 4 4 4 4 4 3 3 3 3 2 2
36 37 40 40 37 34 32 31 30 30 31 32 32 33 35 39 40 41 42 43 44 43 42 38 32 31 30 26 26 26 27 28 28 28 29 28 29 29 27 26 27 30 34 37 39 41 47 52 49 43 38 33 34 38 40 42 42 41 41 41 39 36 30 21 12 8 7 7 7 5 4 3 3 3 4 4 4 4 4 4 3 3 3 2 3 2
38 38 38 35 32 32 31 30 31 31 32 31 32 35 38 40 40 41 43 45 45 43 39 34 29 29 28 25 26 27 28 30 29 28 28 29 29 29 28 27 26 32 36 36 37 43 48 49 46 42 36 34 37 41 42 43 42 41 41 41 41 39 34 25 15 9 7 7 7 6 4 4 3 3 3 4 4 4 3 3 3 3 3 2 2 2
37 36 35 34 33 32 30 30 32 32 32 32 33 34 36 39 41 44 44 42 42 40 35 30 28 30 30 27 27 28 29 31 29 28 28 29 30 29 29 27 27 34 37 35 37 42 44 44 44 41 36 36 41 42 43 45 44 42 41 41 41 40 36 27 17 11 8 8 7 6 5 4 3 3 3 4 4 3 3 3 3 3 3 2 2 2
39 37 36 36 36 36 34 33 33 34 35 35 35 35 37 40 41 41 38 35 37 36 33 30 28 31 32 29 28 29 29 30 29 28 29 30 31 30 30 27 29 36 36 34 36 39 41 42 44 41 37 39 43 42 44 46 45 43 42 41 41 40 37 28 18 12 9 8 8 7 5 4 3 3 3 4 4 3 3 3 3 3 3 3 2 2
40 39 39 40 42 42 40 37 36 36 36 35 35 36 37 37 35 34 31 30 32 34 34 32 30 31 32 29 28 29 30 30 30 29 29 30 31 31 29 28 33 38 35 33 35 38 42 44 45 41 38 42 45 42 45 47 45 44 44 43 41 41 40 31 21 14 10 8 8 8 6 4 3 3 3 3 4 3 3 3 3 3 3 3 2 2
39 41 43 44 44 42 41 39 36 35 33 34 35 36 36 35 34 33 32 31 31 33 36 34 31 31 30 27 27 29 30 31 30 29 29 30 31 30 29 30 37 38 33 32 36 41 46 47 45 40 39 44 44 43 46 47 44 45 45 44 43 42 42 35 24 16 11 9 9 8 6 4 3 3 3 3 4 4 3 3 3 3 3 3 2 2
41 43 45 44 42 41 40 39 36 34 34 33 34 36 37 36 36 36 35 33 32 33 37 36 31 29 29 27 28 30 30 30 28 28 29 30 31 30 30 35 40 37 33 35 40 47 51 49 44 39 41 44 43 43 47 47 44 44 45 44 43 41 41 36 25 17 12 10 9 9 7 5 4 3 3 3 3 4 3 3 3 3 3 3 2 2
43 45 44 43 42 41 40 39 38 37 37 36 36 37 39 38 38 37 35 34 32 32 37 37 30 26 28 27 28 30 29 28 27 27 28 30 30 31 33 39 40 37 37 42 48 53 53 49 42 39 42 44 41 43 47 47 45 44 45 45 43 41 40 36 27 18 13 11 9 9 8 5 4 3 3 3 3 4 3 3 3 3 3 3 2 2
45 45 45 44 43 42 41 42 43 42 41 40 39 39 39 40 39 37 35 35 32 31 34 36 29 24 26 27 28 28 27 26 26 26 28 30 31 33 38 41 40 40 47 54 57 56 52 48 41 38 42 43 41 42 46 47 46 45 45 45 44 43 42 38 29 19 14 12 10 9 9 6 4 4 3 3 3 4 3 3 3 3 3 3 3 3
47 47 47 46 46 45 45 47 48 47 46 45 45 45 43 42 41 40 38 37 34 29 28 31 30 26 26 28 27 27 27 26 27 26 28 30 31 37 43 45 45 50 60 63 59 53 50 45 39 37 41 42 41 43 46 47 47 46 47 46 46 46 44 40 32 20 14 12 10 10 9 7 5 4 3 3 3 3 3 3 3 3 3 3 3 3
49 49 49 49 50 50 49 50 51 50 49 49 50 49 46 44 43 43 42 40 37 30 25 28 30 27 27 28 28 28 27 26 26 27 28 30 34 43 49 51 55 63 68 64 55 49 47 43 38 37 40 43 43 44 45 47 48 48 48 48 48 48 46 43 35 23 14 12 11 10 10 8 5 4 4 3 3 3 4 3 3 3 3 3 3 3
53 53 53 51 51 52 52 52 52 51 50 50 50 50 48 46 44 42 41 39 36 31 26 26 29 29 28 30 29 28 27 26 26 27 29 32 41 51 56 60 66 69 66 58 50 47 45 41 37 38 42 46 46 45 45 48 50 50 49 50 50 51 48 45 38 26 15 13 11 10 10 9 6 5 4 4 3 3 4 3 3 3 3 3 3 3
54 54 55 53 51 53 54 52 51 52 52 53 54 54 52 48 43 39 35 34 34 32 27 26 31 32 31 31 29 28 27 26 25 27 29 37 50 60 64 68 69 65 59 53 48 46 43 39 38 40 45 49 49 46 45 48 51 51 50 51 52 53 52 47 41 29 17 13 12 11 11 10 7 5 5 4 4 3 4 4 3 3 3 3 3 3
51 52 54 54 51 52 53 51 53 56 57 58 58 56 52 47 41 36 32 30 33 33 28 26 33 36 33 31 29 28 27 25 26 28 31 46 63 68 68 69 65 59 54 50 46 45 42 39 40 44 49 52 51 47 45 48 53 53 51 53 54 55 55 50 43 32 19 13 12 11 11 11 8 6 5 5 4 4 4 4 4 3 3 3 3 3
47 48 49 51 51 51 53 54 57 61 59 56 54 51 48 44 40 36 32 29 31 35 32 28 32 36 34 30 29 28 26 26 27 28 37 60 74 71 66 63 59 55 51 47 46 44 42 42 44 47 52 54 51 47 46 49 54 54 53 55 56 57 56 52 45 34 21 13 12 12 11 11 9 7 6 5 4 4 4 4 4 4 3 3 3 3
46 45 45 48 47 47 51 53 53 54 51 47 45 44 43 41 39 36 32 28 30 36 36 31 31 34 33 31 30 28 27 28 27 30 48 72 77 66 60 59 56 52 47 45 45 44 44 44 46 51 55 54 50 47 47 50 55 56 55 56 57 57 57 54 46 36 23 13 11 12 12 12 11 8 6 5 5 4 4 4 4 4 4 3 3 3
47 45 43 45 44 41 42 43 42 43 42 40 39 40 40 40 39 36 32 29 29 35 37 34 32 32 32 32 30 29 30 29 28 38 59 75 71 61 58 57 54 49 45 45 45 44 44 45 49 56 58 54 50 48 49 52 55 56 56 56 58 58 57 55 48 38 25 14 11 12 12 12 12 10 7 6 5 4 4 4 4 4 4 4 3 3
47 46 43 44 45 42 42 43 43 43 43 40 39 40 40 41 39 38 35 31 31 35 37 36 33 30 30 30 29 31 32 29 32 50 67 72 66 60 56 55 52 48 44 44 44 44 45 47 54 60 58 53 51 50 50 52 55 56 56 57 58 58 58 56 50 40 27 16 11 11 12 13 13 11 8 6 5 5 4 4 4 4 4 4 4 4
46 46 44 44 46 45 44 46 46 45 45 43 40 40 41 41 42 42 40 35 34 36 36 34 33 31 29 29 30 32 31 30 42 61 70 68 63 59 56 55 52 47 45 44 43 45 48 52 60 62 57 54 53 53 52 53 54 56 55 56 58 58 58 57 51 42 30 18 11 11 12 13 13 12 10 8 6 5 5 4 4 4 4 4 4 4
44 44 43 45 49 48 44 45 46 46 47 45 41 41 42 43 45 44 42 38 36 36 35 32 32 31 28 30 35 35 30 35 52 66 68 64 61 60 59 57 51 48 46 43 44 49 54 57 61 61 58 57 56 56 55 54 55 56 55 55 56 57 57 57 53 44 32 20 12 10 12 13 14 14 12 10 7 6 5 4 4 4 4 5 5 4
41 42 42 43 48 50 46 46 48 49 50 48 45 44 45 45 45 43 42 38 35 35 34 30 30 30 30 35 39 34 34 47 62 67 66 63 61 62 60 54 49 47 45 44 48 55 58 58 60 61 61 60 59 59 57 56 57 57 55 55 55 56 57 58 55 47 35 22 13 10 11 13 15 15 14 12 9 7 6 5 4 5 5 5 5 5
38 39 40 40 45 50 49 49 52 53 53 51 48 46 45 43 43 43 41 37 33 33 31 29 29 31 35 39 36 32 44 64 70 67 66 63 60 59 55 49 46 45 44 48 55 59 57 56 59 63 64 63 62 61 59 58 58 58 56 54 54 56 57 58 56 49 37 25 15 11 11 12 15 16 15 13 10 8 7 6 5 5 5 5 5 5
40 41 41 41 45 51 52 52 53 54 53 50 47 45 42 41 41 42 41 35 32 31 31 32 34 37 40 38 32 39 64 79 74 68 66 59 53 51 48 46 45 45 49 55 59 58 55 55 61 66 68 68 65 63 62 60 60 59 57 55 54 55 57 58 58 52 40 28 17 12 10 12 14 16 15 14 12 9 8 7 6 5 4 5 5 5
44 44 45 45 46 51 52 50 51 52 48 44 42 41 39 39 38 39 42 39 35 37 43 46 48 46 42 34 34 54 81 86 73 65 59 50 45 45 45 45 47 50 54 58 57 55 54 59 65 70 73 73 70 67 65 62 60 59 57 55 53 54 56 58 58 54 43 30 19 13 11 11 14 16 17 16 14 12 9 7 6 5 5 5 5 5
47 47 48 47 47 49 49 47 46 46 43 39 39 39 37 36 34 41 58 63 54 56 63 62 56 47 36 35 47 68 83 82 71 60 50 44 43 43 45 48 51 55 56 55 56 56 60 66 72 76 78 77 75 72 68 63 60 59 57 55 52 52 55 57 59 56 47 33 21 15 11 11 13 16 18 18 17 14 11 9 7 6 5 5 5 5
48 48 47 46 45 44 43 42 41 42 42 37 36 37 37 38 42 57 86 97 85 78 75 62 49 39 36 49 67 75 76 76 69 55 46 45 45 46 49 52 54 54 53 54 58 63 68 74 78 81 83 82 81 79 73 66 61 60 58 55 52 51 53 56 59 58 49 36 24 16 13 11 12 15 18 19 19 17 14 11 8 7 6 6 5 5
47 46 43 42 41 38 38 38 37 38 39 36 42 51 52 57 66 77 98 111 101 83 68 50 39 40 52 70 80 73 66 66 62 53 48 49 50 51 53 53 52 52 52 56 64 71 77 81 84 87 88 87 86 84 77 69 64 62 60 56 52 51 52 54 58 59 52 39 26 18 14 13 12 15 18 20 20 20 17 14 11 8 7 6 6 5
42 40 38 37 36 34 36 37 37 41 44 49 65 76 73 76 82 80 87 102 93 65 47 41 44 57 72 80 76 63 55 54 54 53 52 54 56 55 52 50 50 52 55 62 71 77 81 85 90 93 93 91 90 87 80 72 67 64 62 56 52 50 50 53 57 59 54 42 28 20 16 14 13 14 17 20 22 22 20 18 15 11 8 7 6 6
38 37 37 38 38 41 44 46 51 59 65 72 84 85 76 74 74 64 64 73 64 43 40 54 67 75 78 72 61 53 48 48 52 56 58 59 58 54 51 52 53 56 62 69 76 80 83 88 95 98 96 94 92 89 83 76 70 67 62 56 52 49 48 51 56 60 56 44 30 21 17 16 15 14 17 20 22 22 22 21 19 15 11 8 7 6
44 46 49 50 55 61 63 67 76 79 77 82 88 80 65 60 56 46 42 45 43 43 57 75 80 74 64 56 51 50 50 51 56 61 62 60 57 54 55 57 58 61 68 73 78 82 86 92 99 100 98 96 94 91 86 80 75 71 64 57 53 49 48 49 54 59 58 47 32 23 18 18 16 15 16 19 22 23 23 22 21 19 14 10 8 7
63 65 67 69 77 83 82 86 92 88 83 89 88 68 49 43 40 35 35 42 50 60 70 74 69 58 52 51 53 56 59 61 62 63 62 59 58 59 62 63 64 67 72 76 80 85 91 97 101 101 99 97 94 91 88 85 80 73 64 57 52 49 47 47 52 58 58 48 34 24 19 19 18 17 17 19 22 24 23 23 22 21 18 14 10 8
78 79 81 88 96 96 93 94 92 88 96 100 80 51 35 33 35 41 52 64 69 67 64 60 55 52 53 57 60 65 69 69 66 62 61 61 63 66 69 70 69 71 75 79 84 90 96 99 100 100 100 97 94 93 92 88 82 73 63 56 52 48 46 46 50 56 58 50 36 25 20 20 20 20 19 19 22 24 24 24 23 22 21 18 13 10
79 81 89 100 101 94 96 96 83 77 88 84 56 34 32 41 51 61 70 74 69 59 56 57 58 58 59 62 65 69 70 69 65 61 62 66 69 72 75 77 76 76 79 84 90 95 98 100 101 101 100 98 97 98 95 88 79 70 61 55 51 47 45 45 48 55 57 51 37 26 21 21 22 22 21 20 22 24 25 25 24 23 22 20 17 13
70 75 86 94 91 89 95 88 63 51 54 48 35 35 46 59 68 69 65 65 64 60 60 62 64 64 62 63 66 68 69 69 67 66 69 73 75 77 82 84 82 81 85 90 95 96 97 99 101 101 101 101 101 99 92 82 74 66 59 54 50 47 45 44 47 53 57 51 39 26 21 21 22 23 24 22 22 24 26 27 26 24 23 22 20 16
63 69 76 81 81 80 77 61 39 32 37 41 45 55 64 69 69 62 58 61 64 63 62 62 66 70 69 66 66 68 73 77 76 75 77 80 80 83 89 90 88 88 92 95 96 96 96 98 100 102 103 103 99 92 84 75 69 63 58 54 50 47 45 44 46 52 56 51 39 27 21 21 23 24 25 25 24 24 27 28 27 26 25 23 22 20
65 69 70 69 63 54 46 36 32 42 58 65 66 66 67 68 65 62 62 64 64 65 65 65 69 75 76 72 69 72 80 84 81 79 82 84 85 89 92 93 93 95 97 97 97 96 96 98 101 105 104 98 90 82 76 70 66 61 57 54 51 48 46 44 46 51 55 51 40 28 22 21 23 25 26 27 26 25 27 29 28 28 26 25 24 23
66 59 49 44 39 35 36 41 51 69 86 85 71 61 62 64 64 65 67 68 69 71 72 71 73 78 81 79 76 76 82 84 81 80 84 87 89 91 92 94 97 98 99 99 99 98 99 101 103 102 96 88 81 76 71 67 64 60 57 54 51 48 46 44 45 50 54 50 40 29 22 21 24 26 27 28 28 27 27 29 30 29 28 26 25 24
44 36 32 36 40 45 52 60 67 78 85 77 64 62 66 67 65 67 71 73 74 75 78 80 82 85 86 86 81 78 81 84 83 83 88 91 91 92 95 98 99 100 100 101 102 103 105 104 99 92 87 82 77 73 69 65 63 60 57 54 51 49 47 44 44 48 52 49 40 29 23 22 24 27 28 29 30 29 27 28 30 30 29 28 26 25
36 39 44 51 57 59 59 60 62 66 70 69 66 68 71 70 69 74 80 83 85 89 95 97 97 93 88 86 83 80 84 91 91 88 89 93 94 95 99 100 100 100 101 102 104 107 107 101 91 84 82 79 74 70 67 64 61 59 56 53 51 48 46 44 43 46 50 48 39 30 24 22 23 27 29 31 32 31 30 29 29 30 30 29 28 26
50 53 53 56 60 61 58 57 58 62 69 75 77 77 78 77 76 79 86 93 99 105 105 100 94 89 84 85 89 89 91 97 96 90 91 97 99 99 100 101 101 101 102 103 105 106 102 95 87 82 79 75 71 68 66 63 61 58 55 52 50 47 46 43 42 44 47 46 38 30 24 23 23 27 30 32 33 34 32 30 30 30 30 29 29 28
56 58 58 59 62 65 65 65 66 68 72 77 79 80 81 81 81 85 92 97 100 99 93 85 83 85 89 95 99 95 92 94 94 92 95 101 102 101 101 102 102 103 104 104 103 100 96 91 85 79 75 71 68 65 63 62 59 56 53 51 48 46 44 42 40 41 44 44 37 30 25 23 24 26 30 33 34 35 35 33 31 31 30 29 29 28
62 64 66 68 70 74 75 76 78 80 82 82 84 86 88 89 90 92 92 89 85 84 85 86 90 93 95 98 97 90 86 91 95 96 98 100 101 102 103 104 106 107 105 101 97 92 90 88 83 76 71 68 65 62 61 59 57 54 51 49 46 44 42 40 37 37 40 41 36 29 26 25 24 26 30 33 35 36 37 35 32 31 31 30 29 28
Wind_Speed
26 26 27 27 28 29 30 30 30 31 33 36 38 39 41 43 43 44 45 46 49 51 53 58 61 61 61 62 63 63 64 65 65 66 66 66 68 69 70 71 72 73 74 76 80 85 88 90 91 93 94 94 94 95 96 98 100 100 101 102 102 99 92 85 80 74 68 62 59 57 56 55 55 56 55 53 53 57 61 64 66 68 71 75 79 82
27 27 27 28 29 30 30 31 33 35 36 38 39 41 42 44 46 47 47 47 48 50 52 56 61 62 62 64 65 65 66 66 66 66 67 68 69 71 71 72 73 74 75 78 82 86 88 91 93 95 96 96 95 95 96 98 100 101 102 103 102 100 94 86 80 76 70 64 59 56 55 54 54 54 55 54 52 53 57 61 64 66 68 72 76 79
27 28 28 29 30 31 32 33 35 36 38 39 41 43 44 44 46 48 49 48 48 50 52 56 62 63 63 65 67 67 67 67 67 68 68 69 70 72 72 73 74 75 77 80 83 85 88 91 95 97 97 96 95 96 97 98 100 102 103 103 102 100 95 88 81 76 72 67 61 56 53 52 53 53 54 54 54 54 54 56 60 63 65 68 71 75
28 29 29 30 31 32 33 35 37 38 40 42 43 45 45 46 45 47 50 51 51 51 52 54 61 66 65 67 69 69 69 69 69 69 70 71 71 72 73 74 75 77 79 81 83 85 88 92 96 98 98 96 96 96 97 98 100 102 103 104 103 100 96 89 82 76 72 68 63 58 53 50 50 51 51 52 54 56 55 54 56 59 62 65 68 71
29 29 30 31 31 33 35 37 39 41 43 44 45 45 45 46 46 47 49 52 53 53 53 53 59 67 67 67 70 71 70 69 69 70 70 71 72 73 74 74 76 79 80 81 83 86 89 93 97 99 99 98 96 96 97 99 100 102 103 104 104 101 98 92 84 77 72 67 64 60 56 51 49 48 48 48 51 54 56 55 55 56 58 60 64 68
29 30 31 32 33 34 36 39 41 43 44 45 46 46 46 47 48 49 50 52 53 54 55 55 58 65 68 67 70 71 71 69 69 70 71 72 73 74 75 75 77 79 80 82 84 87 91 94 98 100 100 99 96 95 97 99 101 103 104 105 105 103 99 94 87 80 74 68 64 61 58 54 50 48 46 46 47 51 53 54 55 55 55 56 59 63
29 31 32 33 34 35 37 40 42 44 46 47 47 47 47 48 50 51 52 53 55 56 58 58 60 66 69 68 70 71 70 70 70 70 71 73 74 75 76 76 78 80 82 85 87 90 93 95 99 100 100 99 96 95 97 100 102 104 105 106 107 106 102 96 89 82 76 70 65 62 59 55 51 49 47 45 45 47 51 53 53 54 55 55 55 58
30 31 32 33 34 37 39 41 43 45 47 48 48 48 49 51 51 52 53 55 58 59 62 62 62 67 70 68 69 70 71 71 70 70 72 73 74 75 77 77 78 81 84 87 89 91 93 96 99 101 100 99 96 96 99 102 104 105 106 107 108 107 104 98 92 84 78 72 67 63 60 56 52 49 47 46 44 44 47 49 51 52 53 53 53 54
31 31 32 34 36 39 41 43 44 46 47 48 49 50 51 52 52 54 56 58 61 62 64 65 63 67 71 71 70 71 72 73 72 72 74 74 75 76 78 78 80 83 86 88 90 92 94 97 99 101 100 98 97 99 102 104 105 106 107 108 109 109 106 100 94 86 80 75 70 65 61 57 54 49 47 46 44 43 43 44 47 50 51 51 51 51
33 33 34 36 38 40 42 44 45 46 47 48 50 52 53 54 54 55 58 61 63 64 66 67 66 67 70 72 72 73 74 75 76 75 75 76 77 78 80 81 82 84 86 88 90 92 94 97 100 100 99 98 99 102 105 106 107 108 109 109 110 111 108 103 97 90 82 77 73 67 62 58 55 51 48 46 45 43 42 41 42 45 49 50 50 49
35 35 37 38 40 41 43 45 46 47 47 48 50 52 54 55 56 57 59 62 65 67 68 69 69 70 72 72 73 75 76 78 79 78 77 78 79 80 82 83 83 84 86 88 90 92 95 97 100 101 100 99 101 104 107 108 109 110 110 110 111 112 110 106 101 94 86 80 76 71 65 60 56 52 49 47 45 43 42 40 39 40 44 47 48 48
37 38 39 41 42 43 44 46 47 48 49 50 51 52 53 55 56 58 59 61 66 69 70 70 70 73 76 75 75 77 78 80 81 80 79 80 81 82 83 85 84 83 85 88 90 92 94 97 100 101 100 100 102 105 107 109 110 111 112 112 112 112 112 107 102 98 91 84 79 74 68 62 57 53 50 48 46 44 42 40 39 38 39 42 45 46
40 41 41 42 44 45 46 47 48 49 50 52 53 54 54 55 56 57 57 59 65 71 73 72 72 74 77 77 77 78 79 81 82 82 81 82 82 82 83 84 82 82 84 87 89 91 94 97 100 102 100 100 102 105 107 109 111 113 113 114 114 114 113 109 104 100 94 88 82 76 70 64 59 54 51 49 47 44 41 39 38 38 37 37 40 43
42 42 43 44 45 47 48 49 49 51 52 54 55 55 55 56 55 56 57 57 62 70 74 75 74 74 76 77 77 78 80 81 82 83 82 82 81 81 82 82 81 81 83 86 89 92 95 98 101 102 100 100 103 105 107 109 111 113 115 116 116 116 116 112 106 101 96 90 84 79 73 66 60 56 52 49 48 45 42 38 37 37 37 36 36 39
42 43 44 45 46 48 50 51 52 53 54 55 56 57 57 58 59 60 61 61 63 69 74 76 74 75 76 76 76 78 80 81 81 82 81 81 81 81 82 81 80 81 83 87 90 93 96 99 102 102 99 101 104 106 108 110 111 113 116 117 117 117 117 114 108 102 98 92 86 81 75 69 62 57 54 51 48 45 42 39 36 36 37 36 35 36
43 43 45 46 48 50 51 53 55 56 56 56 57 58 59 60 61 63 66 67 67 69 74 76 74 74 76 76 77 78 80 80 80 80 81 81 80 81 82 81 80 81 85 88 92 95 97 101 103 101 99 101 104 106 109 111 112 114 117 118 118 117 116 114 109 104 100 94 88 83 77 71 65 59 55 52 49 46 43 39 37 36 36 36 35 35
43 44 46 48 50 52 54 56 58 59 59 59 59 59 61 62 64 65 67 69 69 70 75 78 74 72 74 75 76 78 79 79 79 79 80 80 81 82 81 80 81 83 87 90 93 96 98 101 102 100 98 101 104 106 110 112 114 116 118 119 119 118 117 116 111 106 101 96 90 84 79 72 67 62 57 53 49 46 43 40 38 37 36 35 35 34
44 46 48 50 52 54 57 59 61 62 62 62 62 62 63 64 66 68 69 70 70 69 72 78 78 73 73 75 76 77 78 79 79 80 80 80 81 82 81 81 83 86 89 92 94 96 98 100 101 98 98 102 104 107 110 113 115 117 119 121 121 121 120 117 113 107 103 98 92 86 80 74 68 64 60 55 51 46 43 40 39 37 36 35 34 33
46 48 50 52 54 56 58 60 62 63 64 65 65 66 66 67 69 71 73 73 73 69 68 74 79 77 75 76 77 78 79 79 80 80 80 81 81 81 81 82 85 88 90 92 94 95 97 100 100 96 97 102 105 107 110 113 116 118 121 123 124 124 122 119 116 109 103 99 93 86 81 75 69 65 62 58 53 48 44 41 39 37 36 35 34 33
49 50 52 54 55 57 59 60 62 63 65 66 68 69 70 70 71 73 75 77 77 74 70 71 77 78 77 78 79 79 80 80 80 79 79 79 80 80 81 83 86 88 89 91 93 95 98 100 98 96 98 103 106 108 111 114 117 119 122 124 125 126 124 121 117 111 105 100 94 87 82 76 70 66 63 60 56 51 45 42 39 38 37 35 34 33
50 52 53 54 56 58 59 61 63 64 66 67 69 71 72 72 72 73 75 77 78 78 74 73 77 79 79 80 81 81 80 80 79 78 77 78 78 79 81 84 86 87 89 91 93 95 98 99 97 96 99 104 107 109 111 114 117 120 122 125 126 127 126 123 119 113 107 101 95 88 82 77 72 67 64 62 58 53 47 43 41 39 38 36 35 34
51 52 54 56 57 59 61 62 64 66 67 68 70 72 74 74 74 73 73 75 78 79 76 75 79 82 80 81 81 81 80 79 78 76 76 76 78 79 81 84 85 87 89 91 94 96 98 98 96 97 101 105 108 110 112 114 118 120 123 125 127 129 128 125 120 115 109 102 96 89 83 79 73 68 65 63 60 55 50 45 43 41 39 37 36 34
52 53 55 58 59 60 62 63 65 67 68 70 71 73 75 76 76 75 74 74 76 79 78 75 79 84 83 82 81 81 80 78 76 75 75 75 77 79 82 84 85 87 89 92 94 96 97 98 97 99 103 107 109 110 112 115 118 121 123 126 128 130 130 127 122 117 111 104 97 90 84 79 74 69 66 64 61 57 51 47 44 41 40 38 36 34
54 55 56 58 60 61 64 65 66 68 70 71 72 74 76 77 78 77 75 73 75 80 81 77 77 83 85 83 82 81 80 78 75 74 74 75 77 80 82 83 85 87 89 92 95 96 97 98 98 101 105 108 109 111 112 115 119 121 123 126 129 131 131 128 123 119 113 105 98 91 85 80 75 70 67 65 62 58 52 48 44 42 40 38 37 34
56 57 58 59 61 61 63 65 67 69 71 71 72 74 76 78 79 78 76 73 74 79 83 80 77 82 86 86 84 82 80 77 75 74 74 74 77 80 81 83 85 88 90 93 95 96 97 98 99 103 106 109 110 111 113 116 119 121 124 127 130 132 132 130 125 120 114 107 99 92 86 81 76 72 68 65 62 58 53 48 44 42 40 39 37 35
59 60 60 61 63 62 63 65 66 68 71 72 72 74 76 77 78 78 77 75 74 77 82 84 80 79 82 85 84 82 78 75 74 73 73 74 77 80 81 83 85 88 91 93 94 96 98 99 101 105 108 109 110 111 113 116 119 121 124 127 130 132 133 131 126 120 115 109 101 93 87 81 77 73 68 65 62 58 54 49 44 42 40 39 38 36
61 62 62 64 66 66 66 68 69 70 72 73 73 74 75 77 78 80 80 78 77 77 81 85 83 79 78 80 80 76 73 72 72 71 72 74 77 79 82 84 86 89 92 93 95 97 99 101 103 106 108 110 111 112 114 116 118 121 124 127 130 132 133 132 127 122 116 110 102 94 87 82 78 73 70 66 63 60 55 50 45 42 40 40 39 38
62 64 64 65 68 68 67 69 71 72 74 74 73 74 75 77 79 82 83 82 80 80 81 82 84 82 79 78 76 72 69 69 69 69 71 74 77 80 82 85 88 90 92 93 95 98 100 102 105 107 109 110 111 113 115 116 119 122 124 126 129 132 133 133 129 123 117 111 104 95 88 83 79 75 71 68 64 61 57 52 47 43 41 40 40 39
61 62 63 64 68 70 69 69 71 72 74 75 74 75 76 78 80 82 85 84 82 83 82 81 82 84 81 76 73 70 68 68 68 69 72 75 78 81 83 86 89 90 92 94 96 99 101 104 106 108 109 111 112 114 116 117 119 122 124 126 129 132 134 133 130 124 118 112 106 97 89 84 80 76 72 69 65 62 58 54 50 45 42 40 40 39
59 59 61 61 65 70 70 69 70 72 74 76 77 77 78 79 81 83 85 85 82 82 83 81 80 80 79 74 70 68 68 68 69 71 73 76 78 81 84 87 89 90 92 95 97 99 102 104 106 109 110 112 113 115 117 119 120 122 124 126 129 131 133 134 131 126 119 113 107 99 90 84 80 77 73 69 65 62 59 56 52 47 43 40 39 38
58 58 59 59 62 67 70 69 71 73 75 77 78 79 80 80 81 83 85 84 82 81 82 81 78 75 72 69 67 67 68 69 70 72 75 78 80 82 85 87 89 91 93 95 98 100 103 105 107 110 112 113 115 116 118 120 121 123 124 126 128 131 133 134 132 127 120 114 108 101 92 85 81 77 74 69 65 62 60 56 53 49 44 40 37 36
59 58 60 59 60 65 68 69 71 74 77 78 79 79 80 80 80 82 85 85 83 81 79 77 74 70 66 64 64 66 68 70 72 74 76 79 81 83 86 87 90 92 94 96 99 101 104 106 109 111 113 115 116 118 119 121 122 123 124 126 128 131 133 134 132 128 121 115 109 102 94 86 81 78 75 71 67 64 60 57 53 49 45 41 37 36
60 61 61 62 61 64 68 70 71 74 77 78 77 78 79 79 79 80 84 85 81 78 76 73 71 68 65 63 63 64 68 72 74 76 78 80 83 84 86 88 90 92 95 97 99 102 105 107 110 112 114 116 118 120 121 122 123 123 124 126 127 130 132 134 133 129 123 115 109 103 96 87 82 79 77 74 70 66 62 58 55 51 48 44 39 36
63 63 64 65 64 65 68 70 70 73 76 76 76 77 77 78 77 77 79 81 78 73 72 71 69 65 63 63 62 63 68 74 77 78 80 82 84 85 86 88 90 93 95 98 100 103 106 109 111 113 115 117 119 121 122 123 123 124 124 126 127 129 131 133 133 129 124 116 109 104 97 89 83 80 77 75 72 68 64 60 57 53 50 46 42 38
65 66 67 67 68 67 68 69 69 71 75 76 75 76 76 75 73 71 73 78 77 73 71 69 66 63 62 62 63 65 69 74 78 80 82 84 86 87 88 90 92 94 97 99 102 105 107 110 112 114 116 118 120 122 123 124 124 124 125 126 127 129 131 132 133 130 124 117 110 104 98 91 85 81 78 76 73 71 67 63 59 55 51 48 45 41
67 68 68 68 69 68 67 68 69 69 72 73 72 72 72 70 69 67 68 75 77 72 69 66 63 62 62 63 65 67 69 74 79 82 84 86 88 89 91 92 93 96 98 100 103 106 108 110 112 114 116 118 121 123 124 124 125 125 126 126 127 128 130 131 132 130 125 118 110 104 99 93 86 81 79 76 74 72 69 65 62 58 53 49 46 43
67 68 68 68 68 67 66 67 67 67 67 67 66 67 68 68 67 65 64 70 73 68 64 62 61 61 62 64 67 69 70 73 77 81 84 86 89 91 93 94 95 97 100 102 104 106 108 110 112 114 117 119 121 123 125 125 125 126 126 127 127 127 129 130 132 130 126 119 111 104 98 94 88 82 79 77 74 72 70 67 64 61 57 52 48 44
66 66 66 65 65 65 63 63 63 62 63 62 63 66 67 66 65 62 59 62 65 62 59 59 60 62 64 66 69 71 72 73 76 80 84 86 89 92 94 96 97 99 101 103 105 107 109 111 113 115 117 119 121 123 125 126 126 126 127 127 128 128 128 129 131 130 126 119 111 104 98 94 89 84 79 77 75 72 70 67 64 61 58 54 50 46
63 62 62 61 61 61 61 61 62 63 63 63 65 66 65 63 61 56 52 53 55 55 55 57 60 63 65 67 70 73 74 76 77 81 84 87 90 93 96 98 99 100 102 104 106 108 110 111 113 115 118 120 122 124 125 127 127 128 128 128 128 128 128 129 130 129 126 119 111 103 97 93 89 85 80 77 75 72 70 67 65 62 59 56 52 48
60 59 58 58 58 59 61 61 63 66 67 66 66 65 61 58 55 51 47 47 50 52 54 57 61 63 66 68 71 75 78 81 82 84 86 89 91 94 97 99 101 102 103 105 107 109 111 113 114 116 119 121 122 124 126 127 128 129 129 129 129 128 128 128 129 128 125 119 111 103 96 91 88 85 81 77 75 73 70 68 65 62 60 57 54 50
58 57 57 57 58 60 62 63 64 65 67 68 66 62 55 51 50 48 48 50 52 54 56 60 62 65 67 70 74 78 81 85 86 87 89 91 93 95 98 100 102 104 105 107 109 111 112 114 116 117 119 121 123 124 126 127 128 129 130 129 129 128 127 127 127 127 124 118 111 103 95 90 87 85 81 78 75 73 71 68 66 63 60 58 56 52
57 56 56 58 60 61 63 65 63 62 64 65 61 55 50 49 49 49 51 54 57 58 60 63 66 69 71 75 78 81 84 86 89 90 92 94 95 96 98 101 103 106 107 109 110 112 113 115 117 118 120 122 123 125 126 127 129 130 130 130 129 128 127 126 126 126 123 117 110 102 94 89 85 84 82 78 75 73 71 69 67 64 61 58 56 54
57 56 56 59 61 61 63 64 61 57 57 57 53 50 48 49 51 52 54 57 61 63 64 67 71 75 77 79 82 84 86 89 91 93 94 96 97 98 100 103 105 108 109 111 112 114 115 116 118 119 121 122 124 125 126 128 129 130 131 130 129 128 127 126 125 125 122 116 109 101 94 88 84 82 81 79 76 73 72 69 67 65 62 60 57 54
56 56 57 58 59 59 60 59 55 52 52 51 50 51 52 53 55 56 57 59 63 67 69 72 76 80 82 84 85 86 88 90 92 94 96 97 99 101 103 105 107 109 111 112 114 116 117 118 119 120 122 123 124 126 127 128 129 130 131 130 130 128 127 125 124 123 120 115 108 101 93 87 82 80 79 78 76 73 71 70 67 65 63 61 58 55
54 55 55 55 55 55 54 51 48 50 53 52 52 53 55 57 59 60 62 65 68 72 75 77 80 83 85 87 87 88 90 92 93 95 98 100 102 103 105 107 109 110 112 114 116 117 118 119 120 121 122 123 125 126 128 129 130 130 130 130 130 129 127 125 124 122 119 114 107 100 92 85 81 78 77 76 75 73 71 69 67 65 63 61 59 56
51 50 49 49 49 49 50 49 47 49 55 57 57 57 58 60 62 65 68 71 74 77 80 82 83 85 87 89 89 90 91 94 96 98 100 102 104 106 108 109 110 112 114 115 117 118 119 120 121 122 123 124 126 127 129 130 130 131 130 130 129 128 126 124 123 120 117 112 106 98 91 84 80 77 75 75 74 72 70 69 67 65 63 61 59 57
45 44 43 44 45 45 47 50 50 52 56 59 61 62 64 66 68 71 74 77 79 81 83 85 86 88 89 91 92 93 94 97 99 101 103 105 107 109 110 111 113 114 115 116 117 119 120 121 122 123 124 126 127 128 129 130 131 131 131 130 129 127 126 124 121 119 115 110 104 97 90 83 78 75 74 73 73 72 70 68 67 65 63 61 59 57
38 39 40 43 46 48 49 51 52 53 57 62 64 66 69 71 73 75 78 80 82 83 84 86 88 90 92 94 96 97 98 100 103 104 106 108 109 111 112 114 115 116 117 118 118 119 121 122 124 125 126 127 128 129 130 131 131 131 130 129 128 127 125 123 120 117 113 108 102 95 88 82 77 74 72 71 71 71 70 68 66 65 62 60 59 57
39 41 42 44 48 51 53 54 54 54 57 63 68 70 73 75 76 77 78 81 83 84 85 87 90 93 95 97 99 101 102 104 106 107 108 110 111 113 114 116 117 118 118 119 120 121 122 124 126 127 128 129 130 130 131 131 131 131 130 129 127 126 124 121 118 115 111 106 100 93 87 81 76 72 70 69 69 69 69 68 66 64 62 60 58 57
43 45 46 47 50 53 55 57 58 58 58 62 67 70 74 77 78 78 80 82 84 87 89 90 92 95 98 100 103 105 105 106 108 109 110 111 113 115 116 117 118 120 121 121 122 123 124 126 128 129 130 130 131 131 131 131 131 130 130 128 127 124 122 119 115 112 108 104 97 91 85 80 75 71 68 68 67 67 67 67 66 64 62 60 57 56
48 50 51 52 53 55 58 60 62 63 63 65 69 72 75 78 79 81 83 86 88 90 93 95 97 99 100 102 105 107 108 108 109 111 112 113 115 117 118 119 121 122 124 125 126 126 127 128 130 131 132 132 132 132 131 131 131 130 128 127 125 122 120 117 113 108 105 101 95 89 84 79 74 70 67 66 65 65 66 66 65 64 62 60 58 56
Wind_Direction
288 290 290 290 292 294 298 302 304 304 304 305 308 311 314 315 316 316 318 322 324 326 328 329 329 329 330 331 332 333 334 334 332 331 331 331 332 332 331 331 330 330 332 335 337 339 340 340 340 341 341 341 341 342 342 342 342 342 343 344 343 342 341 339 336 332 329 325 322 318 313 307 302 297 291 284 278 274 271 268 265 261 258 256 254 253
289 289 288 288 290 292 296 299 300 301 302 305 308 310 312 315 317 319 320 321 322 324 326 327 328 329 331 333 334 334 335 334 333 332 332 333 333 332 331 330 330 331 334 337 338 340 341 341 342 342 342 342 343 343 344 343 344 344 345 346 345 343 342 341 339 335 331 328 324 321 317 311 305 300 295 290 283 276 272 269 267 263 260 257 256 254
286 287 287 289 290 292 294 296 298 301 304 306 307 309 311 315 320 322 321 321 322 324 325 328 330 331 332 334 334 334 334 334 333 334 334 334 333 332 331 331 331 334 336 338 339 340 341 342 343 343 343 343 343 344 345 345 345 346 346 347 347 345 344 343 341 338 334 330 327 324 320 315 309 303 299 294 289 282 275 270 268 266 263 260 257 255
286 287 287 288 290 293 296 298 300 302 303 305 307 310 314 317 319 322 323 323 324 325 327 331 333 332 334 335 335 334 334 334 334 335 335 334 333 332 331 332 334 336 338 338 340 341 342 343 344 344 343 344 344 345 346 346 347 348 348 348 348 347 345 344 343 341 337 333 329 326 324 319 313 306 301 297 292 288 282 275 269 266 264 262 259 256
286 286 287 290 294 296 299 300 302 303 304 306 309 313 315 317 319 321 323 324 325 328 330 334 336 334 333 335 334 333 333 334 335 335 335 334 333 332 333 334 336 337 338 338 340 342 342 344 344 344 344 344 345 346 347 347 348 349 349 348 349 349 347 345 345 343 340 336 332 329 327 323 317 310 304 298 293 289 286 282 276 269 264 261 260 258
284 286 289 292 296 298 300 302 303 305 307 309 312 314 316 318 319 320 323 325 328 331 332 335 337 334 333 334 333 332 332 333 335 335 335 334 333 333 334 335 336 337 338 339 341 342 343 344 345 344 344 345 346 346 347 349 349 350 350 349 350 350 349 347 346 345 342 339 335 332 330 327 322 316 308 302 295 291 287 284 280 275 269 263 260 258
285 287 291 294 297 299 300 302 304 306 309 311 313 314 316 317 319 321 325 327 328 331 333 335 338 335 332 333 332 331 332 333 334 334 335 334 333 334 335 335 335 336 339 341 342 343 343 344 345 344 344 345 346 347 348 350 351 351 351 351 350 351 350 348 346 346 344 342 338 334 332 330 326 320 313 306 299 293 289 287 283 279 274 268 263 258
287 290 292 295 298 299 300 303 306 308 310 312 314 316 318 319 322 324 325 327 328 331 333 334 336 333 331 332 331 331 332 332 333 334 335 334 334 334 335 334 335 337 340 342 342 342 343 344 344 344 344 345 346 348 349 350 351 352 352 352 351 352 352 349 347 347 346 344 341 338 334 331 329 324 317 310 303 296 291 289 286 282 277 272 268 262
289 292 294 296 297 299 302 305 307 310 312 314 316 318 319 320 323 324 325 327 328 330 331 331 332 332 330 331 332 331 331 331 333 334 335 335 335 335 334 334 335 338 340 341 341 342 343 344 344 344 345 346 347 349 350 351 352 352 353 353 352 352 352 350 348 347 347 346 344 341 337 334 331 327 321 314 308 301 295 290 288 284 281 276 272 268
292 294 295 295 297 301 304 306 308 311 313 315 317 319 321 321 323 324 325 326 326 327 328 328 329 330 330 331 331 331 331 331 332 334 335 335 336 335 335 335 336 338 339 340 341 342 343 344 343 344 345 348 349 351 351 352 352 353 353 353 353 353 353 352 349 348 348 348 346 343 340 337 334 330 325 318 312 306 300 294 289 286 283 280 277 273
293 295 295 296 299 301 304 307 310 312 314 315 318 319 320 320 321 323 325 325 324 325 325 326 328 329 329 331 331 331 331 332 332 333 335 337 336 336 336 337 337 338 338 339 341 342 343 343 343 345 347 349 351 352 352 352 352 353 353 354 354 354 354 353 351 349 349 349 348 345 342 339 336 333 328 322 316 311 305 300 294 289 284 282 280 278
294 295 297 298 300 302 305 308 310 312 314 315 316 317 319 320 321 322 323 323 323 323 324 325 328 329 329 331 331 331 331 331 332 333 336 337 337 337 337 337 337 337 337 339 341 342 343 343 344 345 348 351 352 353 353 353 353 353 353 354 354 354 354 354 353 351 350 350 349 347 344 341 339 336 331 325 320 316 311 306 301 295 288 284 282 281
294 296 298 300 302 304 307 308 310 311 313 314 315 317 319 319 319 319 319 321 322 323 324 325 328 329 329 330 331 331 331 331 332 333 335 337 337 337 337 337 337 336 337 339 341 342 343 344 345 346 349 352 353 354 354 353 353 353 354 354 355 355 355 355 355 352 351 350 349 348 345 343 341 339 334 329 324 320 316 312 307 302 295 289 285 283
294 297 299 301 303 306 307 308 309 310 312 314 315 316 317 317 316 316 317 320 322 324 325 326 327 328 328 329 330 330 331 331 332 332 334 336 336 336 336 336 336 336 337 339 341 342 343 344 345 347 349 352 353 354 354 354 354 354 355 355 355 356 355 355 356 354 351 351 350 349 346 344 343 341 337 332 328 324 321 318 314 309 302 295 289 285
294 296 299 301 303 305 306 307 308 309 311 313 315 316 316 317 318 319 319 321 323 325 325 325 326 327 328 328 329 330 330 331 331 332 333 335 336 335 336 336 336 336 338 340 341 343 344 345 346 347 350 352 354 354 354 354 355 355 355 356 356 356 356 355 356 355 352 351 351 350 347 345 344 344 341 336 331 327 325 323 320 314 308 302 295 290
295 297 299 301 303 305 306 307 307 309 311 312 314 315 316 317 319 320 321 323 324 325 325 324 325 327 328 328 329 330 330 330 331 332 334 335 335 336 336 336 336 337 339 341 342 343 344 345 346 347 350 352 354 354 354 354 355 356 356 356 356 356 357 356 356 357 354 352 351 350 348 346 345 345 344 339 334 331 329 327 324 319 313 307 301 295
296 298 300 302 303 305 306 307 308 310 311 312 313 315 316 317 319 320 321 322 324 325 325 324 324 327 327 328 329 329 329 330 331 333 334 335 336 336 335 335 336 338 340 342 343 344 344 344 345 347 350 352 354 354 354 355 355 356 357 357 357 357 357 356 356 357 356 353 352 351 349 347 346 346 345 343 338 335 332 331 328 323 318 312 306 300
298 300 301 302 304 305 306 308 309 311 312 312 314 315 316 318 319 320 321 322 322 324 325 324 324 326 327 327 328 329 329 330 332 334 335 336 336 336 335 336 338 340 342 343 343 343 343 344 344 346 349 352 354 354 354 355 356 356 357 357 357 357 357 357 356 357 357 354 352 351 350 348 347 347 347 345 342 338 336 335 332 327 322 316 310 304
299 301 302 303 305 306 307 308 309 311 312 313 314 316 317 319 320 321 321 321 322 323 324 325 324 326 328 328 329 329 330 331 333 335 336 337 336 335 336 338 339 341 342 342 342 343 343 343 344 346 350 352 354 354 354 355 356 357 357 357 357 357 357 357 356 357 358 355 352 352 351 350 348 348 348 347 344 342 340 338 336 331 327 321 315 308
300 302 303 304 305 306 307 309 310 311 312 313 315 316 317 319 320 320 321 322 322 323 324 326 325 325 328 328 329 330 331 332 334 335 337 336 335 335 337 339 340 341 342 341 341 342 342 343 344 346 350 353 354 354 354 355 356 357 358 358 358 358 357 357 357 357 358 357 353 352 352 351 350 350 350 348 346 344 343 342 340 336 331 326 320 313
302 303 304 305 306 307 308 309 310 311 312 314 315 316 317 318 319 320 321 322 323 323 325 327 326 326 328 329 329 330 331 332 334 336 337 336 335 336 338 340 341 341 341 340 341 342 342 342 344 347 350 353 353 353 354 355 356 357 358 358 358 358 357 357 357 356 358 358 354 352 353 352 351 351 351 350 348 345 345 345 343 340 336 331 325 319
302 304 304 305 306 307 308 309 310 311 313 314 315 315 316 317 318 319 321 322 323 323 325 328 327 327 328 329 329 330 331 332 334 336 337 336 336 337 339 340 340 340 340 340 340 341 342 343 345 347 350 352 352 353 354 355 356 357 358 358 358 358 357 357 357 356 357 358 356 353 353 353 352 353 353 352 349 347 346 347 346 343 339 334 329 323
303 304 305 306 306 307 308 309 310 311 313 314 314 315 316 317 318 319 321 322 323 323 324 328 328 327 327 328 329 330 331 332 335 336 337 337 337 338 339 339 339 339 339 339 340 341 342 343 345 348 350 351 352 353 354 355 356 357 358 358 358 358 357 357 357 356 356 358 357 354 354 354 353 354 354 353 351 348 347 348 348 345 342 338 333 327
304 304 305 306 307 308 309 310 311 312 312 313 314 315 316 317 318 319 320 322 324 324 324 327 328 327 327 328 329 330 331 333 335 336 338 338 337 337 338 338 339 339 339 339 340 341 343 344 346 348 349 350 351 352 353 354 355 356 357 358 358 358 357 357 357 356 356 357 358 356 354 355 355 355 356 355 352 349 347 347 348 347 344 341 337 331
304 305 305 306 306 308 309 310 311 311 312 313 314 315 316 317 318 318 320 322 324 324 323 325 328 328 327 328 330 331 332 333 334 336 338 338 336 336 337 338 338 338 338 339 340 342 343 344 346 348 349 350 351 352 353 354 355 356 357 358 358 358 358 357 357 356 355 356 358 357 355 355 356 356 356 356 354 351 348 347 349 348 347 344 342 337
305 305 306 306 306 307 308 309 310 311 311 312 314 315 316 317 317 318 319 321 324 324 323 324 327 328 327 328 330 331 332 332 334 336 337 336 335 336 337 337 338 337 338 339 341 343 344 345 346 348 349 350 351 352 353 354 354 355 356 357 358 358 357 357 356 356 355 356 358 358 356 356 357 356 356 356 355 353 350 348 349 350 349 347 345 342
306 307 307 308 308 309 310 311 312 312 313 313 314 315 316 317 318 318 319 321 324 324 324 324 325 326 327 327 329 330 330 331 333 335 336 335 335 335 336 337 337 337 338 340 342 343 344 345 346 347 348 349 350 351 352 353 354 355 356 357 357 357 357 357 356 356 355 355 357 358 357 356 357 357 357 357 356 355 353 350 350 351 352 350 348 345
307 307 308 309 309 309 311 312 313 313 313 313 315 316 316 317 318 319 319 321 323 324 323 324 324 325 327 328 328 329 329 330 332 334 335 335 334 335 336 337 337 338 339 341 342 343 344 345 346 347 348 349 350 351 352 353 354 354 355 356 357 357 357 357 356 356 355 355 356 358 358 357 358 359 358 358 357 356 355 352 351 352 354 352 350 347
307 308 309 310 310 310 311 312 313 313 313 313 315 316 317 318 318 318 318 320 322 323 322 324 324 325 327 329 329 329 329 330 332 334 334 334 335 335 336 336 337 338 340 341 342 343 344 345 346 347 348 349 350 350 351 352 353 354 355 356 356 357 357 356 356 355 355 354 355 357 359 358 358 359 360 359 358 357 356 354 353 353 354 354 352 349
307 308 308 310 310 310 311 312 313 313 313 314 315 316 317 317 318 318 318 319 321 321 322 323 324 325 327 329 329 328 329 330 332 333 333 334 335 336 336 336 337 338 340 341 342 343 344 344 346 347 347 348 349 350 350 351 352 353 354 355 356 356 356 356 356 355 355 354 354 356 358 359 358 359 360 0 360 358 357 356 355 353 354 355 354 351
308 308 308 309 310 309 310 312 313 313 313 313 315 316 316 317 317 318 317 317 319 321 321 323 324 325 327 328 328 328 328 329 331 333 333 334 336 336 335 336 337 338 340 341 342 343 343 344 345 346 347 347 348 349 349 350 351 352 353 354 355 355 355 356 355 355 354 354 353 354 357 359 359 359 360 1 1 1 359 357 356 354 353 354 355 354
308 308 308 309 310 309 310 311 312 312 312 312 314 315 316 317 318 318 317 317 319 322 322 323 324 326 327 328 328 328 328 329 331 332 333 334 335 335 335 336 337 338 340 341 342 342 342 344 345 345 346 346 347 348 349 349 350 351 352 353 354 355 355 355 355 354 354 354 353 353 356 359 359 359 360 0 1 2 1 359 357 356 354 353 355 356
307 308 308 309 309 309 309 310 312 311 311 311 313 314 315 316 318 318 317 318 321 323 324 324 326 327 328 328 328 329 329 329 330 332 333 334 334 335 335 336 337 338 340 341 341 341 342 343 344 344 345 345 346 347 347 348 349 350 351 353 353 354 354 354 354 354 354 354 353 352 354 358 359 359 360 0 1 2 2 0 358 357 356 354 354 356
306 307 307 308 309 309 309 310 311 311 310 311 313 314 315 316 318 320 319 319 322 324 324 325 326 327 328 327 328 330 329 329 330 331 332 333 333 334 335 336 337 339 340 340 340 341 342 343 343 343 344 344 345 345 346 347 348 349 350 351 352 353 353 353 354 354 353 353 353 351 352 356 359 360 0 0 0 1 2 2 0 359 358 356 355 355
305 305 306 307 308 308 309 309 310 311 310 311 314 314 315 317 319 322 321 320 321 324 324 325 326 327 327 328 329 330 330 330 330 331 332 332 333 334 335 336 338 338 339 340 340 341 341 342 342 342 343 343 343 344 345 346 347 348 349 350 351 352 352 353 353 353 353 353 352 351 351 354 358 360 0 0 0 360 1 2 1 360 359 358 356 355
304 305 306 307 307 308 309 310 311 311 311 313 315 315 316 318 320 322 322 319 320 323 324 325 326 326 327 328 328 330 331 331 330 330 332 333 333 334 335 336 337 338 339 340 340 340 340 340 341 341 341 342 342 343 343 344 345 347 348 349 350 351 352 352 352 353 353 352 352 351 350 352 356 359 360 360 -0 360 0 1 1 0 359 359 358 357
304 305 306 307 308 310 311 311 311 312 312 314 315 314 316 318 320 321 322 320 319 322 324 325 325 326 327 328 328 329 330 331 330 330 331 332 333 333 334 336 337 338 339 339 339 339 339 339 339 340 340 341 341 341 342 343 344 345 346 348 349 350 351 351 352 352 352 352 351 351 350 350 353 357 359 359 360 360 360 0 1 360 359 358 358 358
305 307 308 310 311 312 312 312 312 312 313 314 314 314 316 319 320 321 323 320 319 321 324 324 324 325 326 327 327 328 329 330 330 330 331 332 332 333 334 335 337 338 338 338 338 338 338 338 338 338 339 339 340 340 341 342 343 344 345 346 347 348 349 350 351 351 351 351 351 351 350 349 351 355 358 359 359 359 360 360 0 360 359 357 357 357
308 310 312 313 314 314 314 314 314 313 314 316 316 316 318 320 321 323 324 321 319 321 323 323 323 324 326 326 327 328 328 329 330 330 331 332 333 334 334 335 336 337 337 337 336 336 337 337 337 337 338 338 339 339 339 340 341 343 344 345 346 347 348 349 350 350 351 351 350 350 349 349 349 352 356 358 358 358 359 359 359 360 359 358 357 356
310 312 314 315 314 313 313 314 314 315 316 318 317 318 320 322 322 324 324 321 320 321 322 322 322 324 325 327 328 328 329 329 330 331 332 332 333 334 334 334 334 335 335 335 335 335 336 336 336 336 336 337 337 338 338 339 340 341 342 343 344 345 346 348 349 350 350 350 349 349 349 348 348 350 353 356 357 357 358 358 359 359 359 358 357 356
309 312 314 314 312 312 313 314 315 316 317 317 316 318 322 324 324 324 324 323 321 322 323 323 323 324 326 327 328 329 330 330 330 331 332 332 333 333 333 332 333 333 334 334 334 334 335 335 335 335 335 336 336 337 337 338 339 339 340 342 343 344 345 346 348 349 349 349 349 348 348 348 348 348 351 354 356 356 357 357 358 358 359 358 357 355
309 312 313 311 310 312 313 314 315 316 316 314 316 320 324 326 325 325 325 324 323 323 324 325 325 326 327 328 329 329 330 329 330 331 331 332 332 332 331 331 332 332 333 333 333 333 333 334 334 334 334 334 335 335 336 337 337 338 339 340 341 342 344 345 346 347 348 348 348 348 347 347 347 347 349 351 354 355 356 356 357 357 357 358 357 356
311 312 311 309 310 313 314 313 314 317 315 315 318 322 325 325 324 324 325 325 324 324 325 326 326 326 327 328 329 329 329 329 329 330 330 330 330 330 330 330 331 332 332 331 332 332 332 332 333 333 333 333 333 334 334 335 336 337 337 338 340 341 342 343 345 346 347 347 347 347 347 347 346 346 347 349 351 353 354 355 356 356 356 357 357 356
313 313 311 311 313 314 313 313 317 320 318 318 321 324 325 324 324 324 325 324 324 324 325 326 327 327 327 328 329 329 329 328 328 328 328 328 329 329 330 330 330 330 330 330 330 330 331 331 331 331 332 332 332 333 333 334 334 335 336 337 338 339 341 342 343 345 346 346 346 346 346 346 346 346 346 347 349 351 353 354 354 355 355 355 356 356
316 314 313 313 314 314 314 318 324 324 320 320 322 324 324 324 324 324 325 324 325 325 325 327 327 327 326 327 327 328 327 326 326 327 327 327 328 329 329 329 329 328 328 328 329 329 330 330 330 330 330 330 331 331 332 332 333 334 335 335 336 338 339 340 342 343 345 345 345 344 344 345 345 345 345 346 347 349 351 352 353 354 354 354 354 355
315 314 315 316 316 317 318 323 328 325 320 320 322 323 323 323 324 325 325 325 325 326 326 326 326 325 325 324 325 326 325 324 325 326 326 327 327 328 327 327 327 327 327 327 327 328 328 328 328 328 329 329 329 330 330 331 332 332 333 334 335 336 337 339 340 342 344 344 344 343 343 344 344 344 344 344 345 347 349 350 351 352 353 353 353 353
317 319 321 321 320 321 322 324 326 324 320 319 321 322 322 323 324 325 325 325 325 325 325 325 324 323 322 322 323 324 324 324 324 326 326 326 326 326 325 325 325 325 325 326 326 326 326 326 326 327 327 328 328 329 329 330 330 331 332 332 333 334 336 337 339 341 342 343 343 342 342 343 343 343 343 343 344 344 347 348 349 351 352 352 352 352
323 324 325 324 322 322 323 324 324 323 319 318 320 322 322 322 324 325 324 323 323 323 322 321 320 320 320 321 321 323 324 324 324 325 325 324 324 324 323 323 323 324 324 324 324 324 324 325 325 325 326 326 327 327 328 328 329 329 330 331 332 333 334 335 337 339 341 342 342 341 341 341 342 342 342 342 343 343 344 346 348 349 350 351 351 351
327 325 326 326 323 322 323 323 323 322 319 318 319 320 319 319 321 321 320 319 319 318 318 318 318 318 320 321 322 322 323 323 323 323 323 322 322 322 322 322 322 322 323 323 322 323 323 323 323 324 324 325 325 326 326 327 327 328 328 329 330 331 332 334 336 338 340 341 341 340 339 340 341 342 341 341 341 342 342 344 345 347 348 350 351 350
327 326 326 327 324 322 322 322 322 321 319 316 316 316 315 315 317 317 316 315 315 315 316 317 318 319 320 321 321 321 321 321 321 320 320 320 320 320 321 321 321 321 321 321 321 321 321 322 322 322 323 323 324 324 325 325 325 326 327 328 329 330 331 333 335 337 339 340 339 338 338 338 339 340 340 340 340 341 341 341 343 345 346 348 350 350
327 326 326 326 325 323 322 321 320 319 318 316 315 313 313 313 314 313 313 314 315 316 317 318 319 319 319 320 319 319 319 319 318 318 319 319 319 319 319 319 319 319 319 319 319 320 320 320 320 321 321 322 322 322 323 323 324 324 325 326 327 328 330 331 333 336 338 339 338 337 337 337 338 339 339 339 339 339 340 340 341 342 344 346 348 349